Location: Pasarilla del Rebollar
(40.6790°N, 5.0062°W)
Time: 11:51:44
(UTC+00:00)

ISS - Pass Details

Date: 22 April 2026
Orbit: 414 x 424 km, 51.6° (Epoch: 21 May)

Event Time Altitude Azimuth Distance (km) Brightness Sun altitude
Exits shadow 03:29:09 64° 96° (E) 467 -3.5 -21.2°
Drops below altitude 10° 03:32:11 10° 57° (ENE) 1,503 0.2 -20.8°
Sets 03:34:17 0° 55° (NE) 2,372 1.7 -20.5°
